Regional Weather Roundup
Issued by NWS Newport/Morehead, NC

Current Version | Previous Version | Graphics & Text | Print | Product List | Glossary Off
Versions: 1 2 3 4 5 6 7 8 9 10 11 12 13 14 15 16 17 18 19 20 21 22 23 24 25 26 27 28 29 30 31 32 33 34 35 36 37 38 39 40 41 42 43 44 45 46 47 48 49 50

000
ASUS42 KMHX 270513
RWRMHX
WEATHER ROUNDUP FOR EASTERN NORTH CAROLINA
NATIONAL WEATHER SERVICE NEWPORT/MOREHEAD CITY NC
100 AM EDT FRI MAY 27 2016

NOTE: "FAIR" INDICATES FEW OR NO CLOUDS BELOW 12,000 FEET
WITH NO SIGNIFICANT WEATHER AND/OR OBSTRUCTIONS TO VISIBILITY

NCZ015>017-031-032-045>047-102-103-270600-
NORTH COAST

CITY           SKY/WX    TMP DP  RH WIND       PRES   REMARKS
EDENTON        CLEAR    N/A N/A N/A S9        30.14F
ELIZABETH CITY CLEAR     71  65  81 S9        30.13F
KITTY HAWK     CLEAR     71  64  78 S5        30.14F
MANTEO         NOT AVBL

$$

NCZ045>047-081-094-103-104-270600-
CENTRAL COAST

CITY           SKY/WX    TMP DP  RH WIND       PRES   REMARKS
FRISCO         CLEAR     72  64  76 SW7       30.17S

$$

NCZ095-097-098-100-101-270600-
SOUTHERN COAST

CITY           SKY/WX    TMP DP  RH WIND       PRES   REMARKS
BEAUFORT       CLEAR     71  65  81 S6        30.15F
CEDAR ISLAND   NOT AVBL
JACKSONVILLE   CLEAR     68  64  87 S5        30.14F
PINEY ISLAND   CLEAR    N/A N/A N/A S5        30.15F
WILMINGTON     CLEAR     70  65  84 SE5       30.14F


$$

NCZ011>013-027>030-043-044-078>080-089-090>093-098-270600-
COASTAL PLAIN

CITY           SKY/WX    TMP DP  RH WIND       PRES   REMARKS
AHOSKIE        CLEAR     70  60  70 S7        30.11F
CLINTON        CLEAR     69  66  91 S3        30.14S
ELIZABETHTOWN  CLEAR     69  65  88 CALM      30.14S
GOLDSBORO      CLEAR     70  68  95 SW5       30.13R
GREENVILLE     CLEAR     72  64  78 S9        30.14F
HAVELOCK       CLEAR     68  62  81 S3        30.16F
KENANSVILLE    CLEAR     67  62  83 CALM      30.15S
KINSTON        CLEAR     70  64  80 S8        30.14F
NEW BERN       CLEAR     67  63  87 S5        30.16F
RICHLANDS      CLEAR     66  64  93 CALM      30.15F
ROCKY MOUNT    CLEAR     71  63  75 S6        30.12S
WASHINGTON     CLEAR     69  64  84 S5        30.14F
WHITEVILLE     CLEAR     68  64  88 CALM      30.13F

$$

AMZ130-135-150-152-154-156-158-170-250-252-270-ANZ085-086-088-633-658-670-270600-
MARINE OBSERVATIONS

STATION/POSITION TIME  TEMP    WIND        PRES    WAVE   SWELL
                       AIR SEA DIR/SP/G            HT/PER HT/PER
                 (UTC) (F)     (DEG/KT/KT) (MB)    (FT/S) (FT/S)
CHESAPEAKE LIGHT 0500   70     200/ 20/ 21 1019.7
64 E VA BEACH    0450   64 59  200/  8/ 10 1020.4    2/ 8   2/ 8
DUCK             0400   73 61  200/ 12/ 15 1020.2
2 E DUCK         0411      63                N/A     2/ 8
OREGON INLET     0400   74 77  200/ 12/ 13 1021.2
13E OREGON INLT  0500      65                N/A     2/ 7   2/ 7
HATTERAS CG      0400   73 74  190/  4/  7 1021.3
DIAMOND BUOY     0450   76 71  170/ 10/ 12 1021.4    2/ 8   2/ 8
CAPE LOOKOUT     0500   73     180/  6/  7 1020.9
BEAUFORT LAB     0400   73 72  180/  7/  7 1020.7
30 SE NEW RVR IN 0425      74                N/A     2/ 8
27 SE WRIGHTSVLE 0408   76 75  170/ 10/ 12 1021.2
5 SE WRIGHTSVLE  0408   75 73  170/  8/ 10 1021.8
225 S CAPE HAT   0450   76 77   80/ 14/ 16 1020.0    3/ 7   2/ 7
41 SE CHARLESTON 0450   77 77  120/ 10/ 12 1020.2    2/ 7   2/ 7

$$




USA.gov is the U.S. government's official web portal to all federal, state and local government web resources and services.